Time,TemperatureF,DewpointF,PressureIn,WindDirection,WindDirectionDegrees,WindSpeedMPH,WindSpeedGustMPH,Humidity,HourlyPrecipIn,Conditions,Clouds,dailyrainin,SoftwareType,DateUTC
2013-03-14 00:00:00,34.2,-0.7,29.94,WNW,292,4.7,11.0,22,0.00,,---,0.00,VWS V14.01,2013-03-14 04:00:00,
2013-03-14 00:02:00,34.2,-0.7,29.94,SW,225,7.8,11.0,22,0.00,,---,0.00,VWS V14.01,2013-03-14 04:02:00,
2013-03-14 00:07:00,34.2,-0.7,29.94,NW,315,7.2,11.0,22,0.00,,---,0.00,VWS V14.01,2013-03-14 04:07:00,
2013-03-14 00:10:00,34.2,-0.7,29.94,West,270,3.1,11.0,22,0.00,,---,0.00,VWS V14.01,2013-03-14 04:10:00,
2013-03-14 00:12:00,34.2,-0.7,29.94,West,270,3.6,6.5,22,0.00,,---,0.00,VWS V14.01,2013-03-14 04:12:00,
2013-03-14 00:17:00,34.0,-0.9,29.94,NW,315,6.5,7.8,22,0.00,,---,0.00,VWS V14.01,2013-03-14 04:17:00,
2013-03-14 00:20:00,34.0,-0.9,29.94,WNW,292,12.8,19.9,22,0.00,,---,0.00,VWS V14.01,2013-03-14 04:20:00,
2013-03-14 00:22:00,34.2,-0.7,29.94,NW,315,8.5,13.0,22,0.00,,---,0.00,VWS V14.01,2013-03-14 04:22:00,
2013-03-14 00:27:00,34.0,-0.9,29.94,WNW,292,12.1,22.2,22,0.00,,---,0.00,VWS V14.01,2013-03-14 04:27:00,
2013-03-14 00:30:00,34.0,-0.9,29.94,NNW,338,10.3,22.2,22,0.00,,---,0.00,VWS V14.01,2013-03-14 04:30:00,
2013-03-14 00:32:00,33.8,-1.0,29.94,NW,315,13.2,15.9,22,0.00,,---,0.00,VWS V14.01,2013-03-14 04:32:00,
2013-03-14 00:37:00,33.8,-1.0,29.94,WNW,292,17.7,17.7,22,0.00,,---,0.00,VWS V14.01,2013-03-14 04:37:00,
2013-03-14 00:40:00,33.8,-1.0,29.94,WNW,292,10.1,17.7,22,0.00,,---,0.00,VWS V14.01,2013-03-14 04:40:00,
2013-03-14 00:42:00,33.6,-0.2,29.94,SW,225,5.6,11.4,23,0.00,,---,0.00,VWS V14.01,2013-03-14 04:42:00,
2013-03-14 00:47:00,33.4,-0.4,29.94,WNW,292,10.1,13.0,23,0.00,,---,0.00,VWS V14.01,2013-03-14 04:47:00,
2013-03-14 00:50:00,33.4,-0.4,29.94,NW,315,10.3,13.0,23,0.00,,---,0.00,VWS V14.01,2013-03-14 04:50:00,
2013-03-14 00:53:00,33.4,-0.4,29.94,NW,315,9.0,17.7,23,0.00,,---,0.00,VWS V14.01,2013-03-14 04:53:00,
2013-03-14 00:58:00,33.3,-0.5,29.94,NW,315,7.6,22.4,23,0.00,,---,0.00,VWS V14.01,2013-03-14 04:58:00,
2013-03-14 01:00:00,33.3,-0.5,29.94,NW,315,7.4,22.4,23,0.00,,---,0.00,VWS V14.01,2013-03-14 05:00:00,
2013-03-14 01:03:00,33.1,-0.7,29.94,NNW,338,5.8,9.8,23,0.00,,---,0.00,VWS V14.01,2013-03-14 05:03:00,
2013-03-14 01:08:00,32.9,-0.8,29.94,NW,315,7.2,10.5,23,0.00,,---,0.00,VWS V14.01,2013-03-14 05:08:00,
2013-03-14 01:10:00,32.9,-0.8,29.94,NW,315,13.2,13.2,23,0.00,,---,0.00,VWS V14.01,2013-03-14 05:10:00,
2013-03-14 01:13:00,32.9,-0.8,29.94,NW,315,3.8,13.2,23,0.00,,---,0.00,VWS V14.01,2013-03-14 05:13:00,
2013-03-14 01:19:00,32.7,-1.0,29.94,NW,315,5.4,13.2,23,0.00,,---,0.00,VWS V14.01,2013-03-14 05:19:00,
2013-03-14 01:20:00,32.7,-1.0,29.94,NW,315,10.1,13.2,23,0.00,,---,0.00,VWS V14.01,2013-03-14 05:20:00,
2013-03-14 01:24:00,32.7,-1.0,29.94,West,270,8.5,15.2,23,0.00,,---,0.00,VWS V14.01,2013-03-14 05:24:00,
2013-03-14 01:29:00,32.7,-1.0,29.94,WNW,292,6.9,15.2,23,0.00,,---,0.00,VWS V14.01,2013-03-14 05:29:00,
2013-03-14 01:30:00,32.7,-1.0,29.94,SW,225,5.4,15.2,23,0.00,,---,0.00,VWS V14.01,2013-03-14 05:30:00,
2013-03-14 01:34:00,32.5,-1.1,29.94,West,270,6.5,18.8,23,0.00,,---,0.00,VWS V14.01,2013-03-14 05:34:00,
2013-03-14 01:39:00,32.5,-1.1,29.94,WNW,292,4.9,18.8,23,0.00,,---,0.00,VWS V14.01,2013-03-14 05:39:00,
2013-03-14 01:40:00,32.5,-1.1,29.94,NW,315,5.6,18.8,23,0.00,,---,0.00,VWS V14.01,2013-03-14 05:40:00,
2013-03-14 01:44:00,32.4,-1.3,29.94,West,270,7.8,13.4,23,0.00,,---,0.00,VWS V14.01,2013-03-14 05:44:00,
2013-03-14 01:49:00,32.4,-1.3,29.94,West,270,7.8,13.4,23,0.00,,---,0.00,VWS V14.01,2013-03-14 05:49:00,
2013-03-14 01:50:00,32.4,-1.3,29.94,West,270,7.8,13.4,23,0.00,,---,0.00,VWS V14.01,2013-03-14 05:50:00,
2013-03-14 01:55:00,32.2,-1.4,29.94,West,270,10.1,13.0,23,0.00,,---,0.00,VWS V14.01,2013-03-14 05:55:00,
2013-03-14 02:00:00,32.2,-1.4,29.94,NW,315,5.8,23.7,23,0.00,,---,0.00,VWS V14.01,2013-03-14 06:00:00,
2013-03-14 02:05:00,32.2,-1.4,29.94,West,270,12.5,12.8,23,0.00,,---,0.00,VWS V14.01,2013-03-14 06:05:00,
2013-03-14 02:10:00,32.2,-1.4,29.94,North,0,11.0,13.0,23,0.00,,---,0.00,VWS V14.01,2013-03-14 06:10:00,
2013-03-14 02:15:00,32.2,-1.4,29.94,NW,315,8.7,14.1,23,0.00,,---,0.00,VWS V14.01,2013-03-14 06:15:00,
2013-03-14 02:20:00,32.2,-1.4,29.94,NNW,338,13.2,13.2,23,0.00,,---,0.00,VWS V14.01,2013-03-14 06:20:00,
2013-03-14 02:25:00,32.2,-1.4,29.94,NNW,338,6.7,13.2,23,0.00,,---,0.00,VWS V14.01,2013-03-14 06:25:00,
2013-03-14 02:30:00,32.2,-1.4,29.94,NW,315,10.7,10.7,23,0.00,,---,0.00,VWS V14.01,2013-03-14 06:30:00,
2013-03-14 02:36:00,32.2,-1.4,29.94,NW,315,4.0,11.9,23,0.00,,---,0.00,VWS V14.01,2013-03-14 06:36:00,
2013-03-14 02:40:00,32.0,-1.6,29.94,WSW,248,3.1,11.9,23,0.00,,---,0.00,VWS V14.01,2013-03-14 06:40:00,
2013-03-14 02:41:00,32.0,-1.6,29.94,West,270,6.5,6.5,23,0.00,,---,0.00,VWS V14.01,2013-03-14 06:41:00,
2013-03-14 02:46:00,32.0,-1.6,29.94,NNW,338,6.0,13.0,23,0.00,,---,0.00,VWS V14.01,2013-03-14 06:46:00,
2013-03-14 02:50:00,32.0,-1.6,29.94,NW,315,11.0,13.0,23,0.00,,---,0.00,VWS V14.01,2013-03-14 06:50:00,
2013-03-14 02:51:00,32.0,-1.6,29.94,WSW,248,15.4,17.9,23,0.00,,---,0.00,VWS V14.01,2013-03-14 06:51:00,
2013-03-14 02:56:00,32.2,-1.4,29.94,WNW,292,8.5,20.6,23,0.00,,---,0.00,VWS V14.01,2013-03-14 06:56:00,
2013-03-14 03:00:00,32.0,-1.6,29.94,NNW,338,7.6,20.6,23,0.00,,---,0.00,VWS V14.01,2013-03-14 07:00:00,
2013-03-14 03:01:00,32.0,-1.6,29.94,NNW,338,6.5,10.1,23,0.00,,---,0.00,VWS V14.01,2013-03-14 07:01:00,
2013-03-14 03:06:00,32.0,-1.6,29.94,WSW,248,12.3,12.3,23,0.00,,---,0.00,VWS V14.01,2013-03-14 07:06:00,
2013-03-14 03:10:00,32.0,-1.6,29.94,WNW,292,5.6,12.5,23,0.00,,---,0.00,VWS V14.01,2013-03-14 07:10:00,
2013-03-14 03:12:00,32.0,-1.6,29.94,WNW,292,8.5,10.3,23,0.00,,---,0.00,VWS V14.01,2013-03-14 07:12:00,
2013-03-14 03:17:00,31.8,-1.8,29.94,NNW,338,7.2,12.1,23,0.00,,---,0.00,VWS V14.01,2013-03-14 07:17:00,
2013-03-14 03:20:00,31.8,-1.8,29.94,WNW,292,5.8,15.9,23,0.00,,---,0.00,VWS V14.01,2013-03-14 07:20:00,
2013-03-14 03:22:00,31.8,-1.8,29.94,NW,315,7.2,10.7,23,0.00,,---,0.00,VWS V14.01,2013-03-14 07:22:00,
2013-03-14 03:27:00,31.6,-1.9,29.94,West,270,5.8,10.7,23,0.00,,---,0.00,VWS V14.01,2013-03-14 07:27:00,
2013-03-14 03:30:00,31.6,-1.9,29.94,West,270,5.8,10.7,23,0.00,,---,0.00,VWS V14.01,2013-03-14 07:30:00,
2013-03-14 03:32:00,31.5,-2.0,29.94,NW,315,4.3,8.5,23,0.00,,---,0.00,VWS V14.01,2013-03-14 07:32:00,
2013-03-14 03:37:00,31.3,-2.2,29.94,NW,315,10.1,10.3,23,0.00,,---,0.00,VWS V14.01,2013-03-14 07:37:00,
2013-03-14 03:40:00,31.3,-2.2,29.94,NW,315,6.3,10.3,23,0.00,,---,0.00,VWS V14.01,2013-03-14 07:40:00,
2013-03-14 03:42:00,31.3,-2.2,29.94,NW,315,5.8,9.8,23,0.00,,---,0.00,VWS V14.01,2013-03-14 07:42:00,
2013-03-14 03:47:00,31.1,-2.4,29.94,WNW,292,3.8,9.8,23,0.00,,---,0.00,VWS V14.01,2013-03-14 07:47:00,
2013-03-14 03:50:00,31.1,-2.4,29.94,West,270,4.9,9.8,23,0.00,,---,0.00,VWS V14.01,2013-03-14 07:50:00,
2013-03-14 03:52:00,31.1,-2.4,29.94,NW,315,3.4,7.6,23,0.00,,---,0.00,VWS V14.01,2013-03-14 07:52:00,
2013-03-14 03:57:00,31.1,-2.4,29.94,NNW,338,6.0,15.4,23,0.00,,---,0.00,VWS V14.01,2013-03-14 07:57:00,
2013-03-14 04:00:00,30.9,-2.5,29.94,West,270,7.8,15.4,23,0.00,,---,0.00,VWS V14.01,2013-03-14 08:00:00,
2013-03-14 04:02:00,30.9,-2.5,29.94,WNW,292,7.4,8.7,23,0.00,,---,0.00,VWS V14.01,2013-03-14 08:02:00,
2013-03-14 04:07:00,30.9,-2.5,29.94,NNW,338,5.8,12.8,23,0.00,,---,0.00,VWS V14.01,2013-03-14 08:07:00,
2013-03-14 04:10:00,30.7,-2.7,29.94,NW,315,5.4,12.8,23,0.00,,---,0.00,VWS V14.01,2013-03-14 08:10:00,
2013-03-14 04:12:00,30.7,-2.7,29.94,NW,315,3.6,10.7,23,0.00,,---,0.00,VWS V14.01,2013-03-14 08:12:00,
2013-03-14 04:17:00,30.6,-2.8,29.94,NW,315,4.9,10.7,23,0.00,,---,0.00,VWS V14.01,2013-03-14 08:17:00,
2013-03-14 04:20:00,30.4,-3.0,29.94,NW,315,3.8,10.7,23,0.00,,---,0.00,VWS V14.01,2013-03-14 08:20:00,
2013-03-14 04:22:00,30.4,-3.0,29.94,North,0,5.6,9.0,23,0.00,,---,0.00,VWS V14.01,2013-03-14 08:22:00,
2013-03-14 04:28:00,30.4,-3.0,29.94,West,270,6.0,12.3,23,0.00,,---,0.00,VWS V14.01,2013-03-14 08:28:00,
2013-03-14 04:30:00,30.4,-3.0,29.94,SW,225,4.9,12.3,23,0.00,,---,0.00,VWS V14.01,2013-03-14 08:30:00,
2013-03-14 04:33:00,30.2,-3.1,29.94,NNW,338,2.9,4.9,23,0.00,,---,0.00,VWS V14.01,2013-03-14 08:33:00,
2013-03-14 04:38:00,30.2,-3.1,29.94,WNW,292,4.3,8.1,23,0.00,,---,0.00,VWS V14.01,2013-03-14 08:38:00,
2013-03-14 04:40:00,30.2,-3.1,29.94,West,270,5.4,8.1,23,0.00,,---,0.00,VWS V14.01,2013-03-14 08:40:00,
2013-03-14 04:43:00,30.2,-3.1,29.94,NW,315,4.7,6.5,23,0.00,,---,0.00,VWS V14.01,2013-03-14 08:43:00,
2013-03-14 04:48:00,30.2,-3.1,29.94,West,270,3.8,10.5,23,0.00,,---,0.00,VWS V14.01,2013-03-14 08:48:00,
2013-03-14 04:50:00,30.0,-3.3,29.91,SW,225,12.5,12.5,23,0.00,,---,0.00,VWS V14.01,2013-03-14 08:50:00,
2013-03-14 04:53:00,30.0,-3.3,29.91,NW,315,5.6,12.5,23,0.00,,---,0.00,VWS V14.01,2013-03-14 08:53:00,
2013-03-14 04:58:00,29.8,-3.4,29.91,WNW,292,7.8,12.5,23,0.00,,---,0.00,VWS V14.01,2013-03-14 08:58:00,
2013-03-14 05:00:00,29.8,-3.4,29.91,West,270,3.8,12.5,23,0.00,,---,0.00,VWS V14.01,2013-03-14 09:00:00,
2013-03-14 05:03:00,29.7,-3.6,29.91,NNW,338,4.5,7.8,23,0.00,,---,0.00,VWS V14.01,2013-03-14 09:03:00,
2013-03-14 05:08:00,29.8,-3.4,29.94,NNW,338,6.5,15.7,23,0.00,,---,0.00,VWS V14.01,2013-03-14 09:08:00,
2013-03-14 05:10:00,29.8,-3.4,29.94,West,270,6.0,15.7,23,0.00,,---,0.00,VWS V14.01,2013-03-14 09:10:00,
2013-03-14 05:13:00,29.7,-3.6,29.94,WNW,292,7.6,8.1,23,0.00,,---,0.00,VWS V14.01,2013-03-14 09:13:00,
2013-03-14 05:18:00,29.7,-3.6,29.94,WNW,292,8.7,13.2,23,0.00,,---,0.00,VWS V14.01,2013-03-14 09:18:00,
2013-03-14 05:20:00,29.8,-3.4,29.91,West,270,7.4,13.2,23,0.00,,---,0.00,VWS V14.01,2013-03-14 09:20:00,
2013-03-14 05:23:00,29.7,-3.6,29.91,West,270,3.1,7.4,23,0.00,,---,0.00,VWS V14.01,2013-03-14 09:23:00,
2013-03-14 05:28:00,29.7,-3.6,29.91,WNW,292,5.6,7.8,23,0.00,,---,0.00,VWS V14.01,2013-03-14 09:28:00,
2013-03-14 05:30:00,29.7,-3.6,29.91,West,270,5.4,7.8,23,0.00,,---,0.00,VWS V14.01,2013-03-14 09:30:00,
2013-03-14 05:33:00,29.7,-3.6,29.91,NNW,338,3.4,8.1,23,0.00,,---,0.00,VWS V14.01,2013-03-14 09:33:00,
2013-03-14 05:38:00,29.7,-3.6,29.94,NW,315,7.8,11.0,23,0.00,,---,0.00,VWS V14.01,2013-03-14 09:38:00,
2013-03-14 05:40:00,29.8,-3.4,29.94,WNW,292,5.8,11.0,23,0.00,,---,0.00,VWS V14.01,2013-03-14 09:40:00,
2013-03-14 05:43:00,29.8,-3.4,29.94,West,270,4.0,12.8,23,0.00,,---,0.00,VWS V14.01,2013-03-14 09:43:00,
2013-03-14 05:49:00,29.8,-3.4,29.94,NW,315,3.6,12.8,23,0.00,,---,0.00,VWS V14.01,2013-03-14 09:49:00,
2013-03-14 05:50:00,29.8,-3.4,29.94,WNW,292,5.6,12.8,23,0.00,,---,0.00,VWS V14.01,2013-03-14 09:50:00,
2013-03-14 05:54:00,30.0,-3.3,29.94,NNW,338,6.0,8.1,23,0.00,,---,0.00,VWS V14.01,2013-03-14 09:54:00,
2013-03-14 05:59:00,30.2,-3.1,29.94,NW,315,7.8,8.7,23,0.00,,---,0.00,VWS V14.01,2013-03-14 09:59:00,
2013-03-14 06:00:00,30.2,-3.1,29.94,NW,315,10.1,12.8,23,0.00,,---,0.00,VWS V14.01,2013-03-14 10:00:00,
2013-03-14 06:04:00,30.4,-3.0,29.94,NNW,338,11.9,12.8,23,0.00,,---,0.00,VWS V14.01,2013-03-14 10:04:00,
2013-03-14 06:09:00,30.2,-3.1,29.94,West,270,4.7,13.0,23,0.00,,---,0.00,VWS V14.01,2013-03-14 10:09:00,
2013-03-14 06:10:00,30.2,-3.1,29.94,North,0,8.7,13.0,23,0.00,,---,0.00,VWS V14.01,2013-03-14 10:10:00,
2013-03-14 06:14:00,29.7,-3.6,29.94,North,0,7.4,13.2,23,0.00,,---,0.00,VWS V14.01,2013-03-14 10:14:00,
2013-03-14 06:19:00,29.5,-3.7,29.94,WNW,292,5.8,13.2,23,0.00,,---,0.00,VWS V14.01,2013-03-14 10:19:00,
2013-03-14 06:20:00,29.5,-3.7,29.94,NW,315,3.4,13.2,23,0.00,,---,0.00,VWS V14.01,2013-03-14 10:20:00,
2013-03-14 06:24:00,29.1,0.1,29.94,WNW,292,5.4,10.7,28,0.00,,---,0.00,VWS V14.01,2013-03-14 10:24:00,
2013-03-14 06:29:00,28.9,2.1,29.94,NW,315,3.4,11.2,31,0.00,,---,0.00,VWS V14.01,2013-03-14 10:29:00,
2013-03-14 06:30:00,28.9,2.1,29.94,WNW,292,3.6,11.2,31,0.00,,---,0.00,VWS V14.01,2013-03-14 10:30:00,
2013-03-14 06:34:00,28.8,2.0,29.97,NW,315,6.0,10.7,31,0.00,,---,0.00,VWS V14.01,2013-03-14 10:34:00,
2013-03-14 06:39:00,28.6,2.5,29.97,NNW,338,5.6,10.7,32,0.00,,---,0.00,VWS V14.01,2013-03-14 10:39:00,
2013-03-14 06:40:00,28.6,2.5,29.97,NW,315,6.5,10.7,32,0.00,,---,0.00,VWS V14.01,2013-03-14 10:40:00,
2013-03-14 06:44:00,28.6,1.8,29.97,NW,315,5.6,8.1,31,0.00,,---,0.00,VWS V14.01,2013-03-14 10:44:00,
2013-03-14 06:49:00,28.8,2.0,29.97,WSW,248,7.8,8.1,31,0.00,,---,0.00,VWS V14.01,2013-03-14 10:49:00,
2013-03-14 06:50:00,28.8,2.0,29.97,West,270,6.0,8.1,31,0.00,,---,0.00,VWS V14.01,2013-03-14 10:50:00,
2013-03-14 06:54:00,28.9,2.1,29.97,NW,315,3.8,7.6,31,0.00,,---,0.00,VWS V14.01,2013-03-14 10:54:00,
2013-03-14 06:59:00,29.1,1.6,29.97,South,180,2.7,9.4,30,0.00,,---,0.00,VWS V14.01,2013-03-14 10:59:00,
2013-03-14 07:00:00,29.1,1.6,29.97,North,0,2.0,9.4,30,0.00,,---,0.00,VWS V14.01,2013-03-14 11:00:00,
2013-03-14 07:04:00,29.1,1.6,29.97,WNW,292,3.4,7.4,30,0.00,,---,0.00,VWS V14.01,2013-03-14 11:04:00,
2013-03-14 07:09:00,29.1,1.6,29.97,North,0,2.5,7.4,30,0.00,,---,0.00,VWS V14.01,2013-03-14 11:09:00,
2013-03-14 07:10:00,29.1,1.6,29.97,WNW,292,2.0,7.4,30,0.00,,---,0.00,VWS V14.01,2013-03-14 11:10:00,
2013-03-14 07:15:00,29.1,0.1,29.97,NW,315,2.9,4.7,28,0.00,,---,0.00,VWS V14.01,2013-03-14 11:15:00,
2013-03-14 07:20:00,29.5,0.4,29.97,WNW,292,4.0,7.8,28,0.00,,---,0.00,VWS V14.01,2013-03-14 11:20:00,
2013-03-14 07:25:00,29.7,0.6,29.97,SW,225,3.6,9.6,28,0.00,,---,0.00,VWS V14.01,2013-03-14 11:25:00,
2013-03-14 07:30:00,29.8,-1.7,29.97,NW,315,2.5,2.5,25,0.00,,---,0.00,VWS V14.01,2013-03-14 11:30:00,
2013-03-14 07:35:00,30.0,-1.5,29.97,NW,315,7.2,10.3,25,0.00,,---,0.00,VWS V14.01,2013-03-14 11:35:00,
2013-03-14 07:40:00,30.0,-1.5,29.97,WNW,292,4.9,10.5,25,0.00,,---,0.00,VWS V14.01,2013-03-14 11:40:00,
2013-03-14 07:45:00,30.2,-1.4,29.97,NW,315,4.9,13.2,25,0.00,,---,0.00,VWS V14.01,2013-03-14 11:45:00,
2013-03-14 07:50:00,30.4,-1.2,29.97,NW,315,8.5,10.3,25,0.00,,---,0.00,VWS V14.01,2013-03-14 11:50:00,
2013-03-14 07:55:00,30.6,-1.1,29.97,NW,315,6.5,13.2,25,0.00,,---,0.00,VWS V14.01,2013-03-14 11:55:00,
2013-03-14 08:00:00,30.6,-2.8,29.97,NW,315,9.8,9.8,23,0.00,,---,0.00,VWS V14.01,2013-03-14 12:00:00,
2013-03-14 08:05:00,30.7,-2.7,29.97,WNW,292,15.2,15.2,23,0.00,,---,0.00,VWS V14.01,2013-03-14 12:05:00,
2013-03-14 08:10:00,30.9,-2.5,29.97,NW,315,3.8,7.2,23,0.00,,---,0.00,VWS V14.01,2013-03-14 12:10:00,
2013-03-14 08:15:00,30.9,-2.5,29.97,North,0,7.6,13.0,23,0.00,,---,0.00,VWS V14.01,2013-03-14 12:15:00,
2013-03-14 08:20:00,31.1,-2.4,29.97,NW,315,3.8,13.0,23,0.00,,---,0.00,VWS V14.01,2013-03-14 12:20:00,
2013-03-14 08:21:00,31.1,-2.4,29.97,NW,315,6.3,9.2,23,0.00,,---,0.00,VWS V14.01,2013-03-14 12:21:00,
2013-03-14 08:26:00,31.1,-2.4,29.97,North,0,4.9,13.2,23,0.00,,---,0.00,VWS V14.01,2013-03-14 12:26:00,
2013-03-14 08:30:00,31.3,-2.2,29.97,NW,315,10.1,17.7,23,0.00,,---,0.00,VWS V14.01,2013-03-14 12:30:00,
2013-03-14 08:32:00,31.5,-2.0,29.97,NW,315,7.6,10.5,23,0.00,,---,0.00,VWS V14.01,2013-03-14 12:32:00,
2013-03-14 08:37:00,31.6,-1.9,29.94,WNW,292,6.0,12.1,23,0.00,,---,0.00,VWS V14.01,2013-03-14 12:37:00,
2013-03-14 08:40:00,31.8,-1.8,29.94,WNW,292,8.1,12.1,23,0.00,,---,0.00,VWS V14.01,2013-03-14 12:40:00,
2013-03-14 08:42:00,31.8,-1.8,29.94,NW,315,7.4,12.8,23,0.00,,---,0.00,VWS V14.01,2013-03-14 12:42:00,
2013-03-14 08:47:00,31.8,-1.8,29.94,NW,315,12.3,17.7,23,0.00,,---,0.00,VWS V14.01,2013-03-14 12:47:00,
2013-03-14 08:50:00,32.0,-1.6,29.97,WNW,292,10.3,17.7,23,0.00,,---,0.00,VWS V14.01,2013-03-14 12:50:00,
2013-03-14 08:52:00,31.8,-1.8,29.97,NW,315,5.4,15.4,23,0.00,,---,0.00,VWS V14.01,2013-03-14 12:52:00,
2013-03-14 08:57:00,32.0,-1.6,29.97,NNW,338,7.8,15.4,23,0.00,,---,0.00,VWS V14.01,2013-03-14 12:57:00,
2013-03-14 09:00:00,32.0,-1.6,29.97,WNW,292,7.8,15.4,23,0.00,,---,0.00,VWS V14.01,2013-03-14 13:00:00,
2013-03-14 09:02:00,32.0,-1.6,29.97,West,270,4.0,12.3,23,0.00,,---,0.00,VWS V14.01,2013-03-14 13:02:00,
2013-03-14 09:07:00,32.0,-1.6,29.97,NW,315,12.3,17.0,23,0.00,,---,0.00,VWS V14.01,2013-03-14 13:07:00,
2013-03-14 09:10:00,32.0,-1.6,29.97,NW,315,13.4,17.0,23,0.00,,---,0.00,VWS V14.01,2013-03-14 13:10:00,
2013-03-14 09:13:00,31.8,-1.8,29.97,WNW,292,10.5,17.2,23,0.00,,---,0.00,VWS V14.01,2013-03-14 13:13:00,
2013-03-14 09:18:00,32.4,-1.3,29.97,NW,315,12.8,17.2,23,0.00,,---,0.00,VWS V14.01,2013-03-14 13:18:00,
2013-03-14 09:20:00,32.4,-1.3,29.97,WNW,292,8.5,17.2,23,0.00,,---,0.00,VWS V14.01,2013-03-14 13:20:00,
2013-03-14 09:23:00,32.4,-1.3,29.97,West,270,17.7,17.7,23,0.00,,---,0.00,VWS V14.01,2013-03-14 13:23:00,
2013-03-14 09:28:00,32.4,-1.3,29.97,WNW,292,4.3,17.7,23,0.00,,---,0.00,VWS V14.01,2013-03-14 13:28:00,
2013-03-14 09:30:00,32.5,-1.1,29.97,NW,315,7.6,17.7,23,0.00,,---,0.00,VWS V14.01,2013-03-14 13:30:00,
2013-03-14 09:33:00,32.5,-1.1,29.97,NNW,338,10.7,10.7,23,0.00,,---,0.00,VWS V14.01,2013-03-14 13:33:00,
2013-03-14 09:38:00,32.7,-1.0,29.97,NW,315,7.6,10.7,23,0.00,,---,0.00,VWS V14.01,2013-03-14 13:38:00,
2013-03-14 09:40:00,32.7,-1.0,29.97,NW,315,10.5,12.1,23,0.00,,---,0.00,VWS V14.01,2013-03-14 13:40:00,
2013-03-14 09:43:00,32.5,-1.1,29.97,NW,315,5.4,16.1,23,0.00,,---,0.00,VWS V14.01,2013-03-14 13:43:00,
2013-03-14 09:48:00,32.7,-1.0,29.97,NNW,338,2.7,16.1,23,0.00,,---,0.00,VWS V14.01,2013-03-14 13:48:00,
2013-03-14 09:50:00,32.9,-0.8,29.97,NNW,338,7.4,16.1,23,0.00,,---,0.00,VWS V14.01,2013-03-14 13:50:00,
2013-03-14 09:53:00,32.9,-0.8,29.97,North,0,4.9,11.9,23,0.00,,---,0.00,VWS V14.01,2013-03-14 13:53:00,
2013-03-14 09:58:00,32.5,-1.1,29.97,West,270,11.0,25.1,23,0.00,,---,0.00,VWS V14.01,2013-03-14 13:58:00,
2013-03-14 10:00:00,32.7,-1.0,29.97,WNW,292,4.3,25.1,23,0.00,,---,0.00,VWS V14.01,2013-03-14 14:00:00,
2013-03-14 10:03:00,33.1,-0.7,29.97,NW,315,13.2,13.2,23,0.00,,---,0.00,VWS V14.01,2013-03-14 14:03:00,
2013-03-14 10:08:00,32.9,-0.8,29.94,NW,315,10.3,14.5,23,0.00,,---,0.00,VWS V14.01,2013-03-14 14:08:00,
2013-03-14 10:10:00,33.1,-0.7,29.94,NW,315,8.1,14.5,23,0.00,,---,0.00,VWS V14.01,2013-03-14 14:10:00,
2013-03-14 10:13:00,33.4,-0.4,29.94,NW,315,6.3,16.8,23,0.00,,---,0.00,VWS V14.01,2013-03-14 14:13:00,
2013-03-14 10:18:00,33.6,-0.2,29.94,WNW,292,14.5,16.8,23,0.00,,---,0.00,VWS V14.01,2013-03-14 14:18:00,
2013-03-14 10:20:00,33.8,-1.0,29.94,NW,315,9.0,16.8,22,0.00,,---,0.00,VWS V14.01,2013-03-14 14:20:00,
2013-03-14 10:23:00,34.2,-0.7,29.94,NW,315,10.7,18.1,22,0.00,,---,0.00,VWS V14.01,2013-03-14 14:23:00,
2013-03-14 10:28:00,33.8,-1.0,29.94,WNW,292,10.7,18.1,22,0.00,,---,0.00,VWS V14.01,2013-03-14 14:28:00,
2013-03-14 10:30:00,33.8,-1.0,29.94,NNW,338,12.5,18.1,22,0.00,,---,0.00,VWS V14.01,2013-03-14 14:30:00,
2013-03-14 10:34:00,33.8,-1.0,29.94,NW,315,11.0,12.5,22,0.00,,---,0.00,VWS V14.01,2013-03-14 14:34:00,
2013-03-14 10:39:00,34.5,-0.4,29.97,WNW,292,4.3,17.9,22,0.00,,---,0.00,VWS V14.01,2013-03-14 14:39:00,
2013-03-14 10:40:00,34.5,-0.4,29.97,North,0,4.3,17.9,22,0.00,,---,0.00,VWS V14.01,2013-03-14 14:40:00,
2013-03-14 10:44:00,34.7,-0.2,29.97,WNW,292,12.8,17.5,22,0.00,,---,0.00,VWS V14.01,2013-03-14 14:44:00,
2013-03-14 10:49:00,34.5,-0.4,29.97,NW,315,15.9,19.9,22,0.00,,---,0.00,VWS V14.01,2013-03-14 14:49:00,
2013-03-14 10:50:00,34.5,-0.4,29.97,NW,315,6.3,19.9,22,0.00,,---,0.00,VWS V14.01,2013-03-14 14:50:00,
2013-03-14 10:54:00,34.3,-0.6,29.97,NNW,338,8.7,16.6,22,0.00,,---,0.00,VWS V14.01,2013-03-14 14:54:00,
2013-03-14 10:59:00,34.9,-0.1,29.97,WNW,292,5.6,16.6,22,0.00,,---,0.00,VWS V14.01,2013-03-14 14:59:00,
2013-03-14 11:00:00,35.1,0.1,29.97,NW,315,5.4,16.6,22,0.00,,---,0.00,VWS V14.01,2013-03-14 15:00:00,
2013-03-14 11:04:00,35.2,0.2,29.97,West,270,3.6,12.1,22,0.00,,---,0.00,VWS V14.01,2013-03-14 15:04:00,
2013-03-14 11:09:00,34.7,-0.2,29.97,South,180,10.1,19.0,22,0.00,,---,0.00,VWS V14.01,2013-03-14 15:09:00,
2013-03-14 11:10:00,34.9,-0.1,29.97,WNW,292,10.5,19.0,22,0.00,,---,0.00,VWS V14.01,2013-03-14 15:10:00,
2013-03-14 11:14:00,35.4,0.4,29.97,WNW,292,9.6,15.9,22,0.00,,---,0.00,VWS V14.01,2013-03-14 15:14:00,
2013-03-14 11:20:00,35.2,0.2,29.97,West,270,10.5,17.0,22,0.00,,---,0.00,VWS V14.01,2013-03-14 15:20:00,
2013-03-14 11:25:00,35.4,0.4,29.97,NW,315,8.1,19.5,22,0.00,,---,0.00,VWS V14.01,2013-03-14 15:25:00,
2013-03-14 11:30:00,35.4,0.4,29.97,NNW,338,10.7,20.8,22,0.00,,---,0.00,VWS V14.01,2013-03-14 15:30:00,
2013-03-14 11:35:00,36.3,1.1,29.97,WNW,292,7.4,16.8,22,0.00,,---,0.00,VWS V14.01,2013-03-14 15:35:00,
2013-03-14 11:40:00,36.1,1.0,29.97,NW,315,11.0,11.0,22,0.00,,---,0.00,VWS V14.01,2013-03-14 15:40:00,
2013-03-14 11:45:00,35.8,0.7,29.97,NW,315,12.5,17.9,22,0.00,,---,0.00,VWS V14.01,2013-03-14 15:45:00,
2013-03-14 11:50:00,36.0,0.8,29.94,West,270,6.3,15.4,22,0.00,,---,0.00,VWS V14.01,2013-03-14 15:50:00,
2013-03-14 11:55:00,37.0,1.7,29.94,West,270,13.0,15.4,22,0.00,,---,0.00,VWS V14.01,2013-03-14 15:55:00,
2013-03-14 12:00:00,36.9,1.6,29.94,NNW,338,10.7,14.1,22,0.00,,---,0.00,VWS V14.01,2013-03-14 16:00:00,
2013-03-14 12:05:00,36.3,1.1,29.94,West,270,10.1,23.5,22,0.00,,---,0.00,VWS V14.01,2013-03-14 16:05:00,
2013-03-14 12:10:00,36.7,1.4,29.94,NW,315,6.9,23.5,22,0.00,,---,0.00,VWS V14.01,2013-03-14 16:10:00,
2013-03-14 12:11:00,36.7,1.4,29.94,WNW,292,12.5,12.5,22,0.00,,---,0.00,VWS V14.01,2013-03-14 16:11:00,
2013-03-14 12:16:00,36.3,1.1,29.94,NW,315,9.8,22.4,22,0.00,,---,0.00,VWS V14.01,2013-03-14 16:16:00,
2013-03-14 12:20:00,36.0,0.8,29.94,NW,315,13.2,22.4,22,0.00,,---,0.00,VWS V14.01,2013-03-14 16:20:00,
2013-03-14 12:21:00,35.8,0.7,29.94,NW,315,8.1,13.2,22,0.00,,---,0.00,VWS V14.01,2013-03-14 16:21:00,
2013-03-14 12:26:00,36.1,1.0,29.94,West,270,11.0,13.2,22,0.00,,---,0.00,VWS V14.01,2013-03-14 16:26:00,
2013-03-14 12:30:00,36.5,1.3,29.94,WSW,248,10.1,17.7,22,0.00,,---,0.00,VWS V14.01,2013-03-14 16:30:00,
2013-03-14 12:31:00,36.3,1.1,29.94,NNE,22,9.8,13.2,22,0.00,,---,0.00,VWS V14.01,2013-03-14 16:31:00,
2013-03-14 12:36:00,37.2,1.9,29.94,WNW,292,6.0,14.5,22,0.00,,---,0.00,VWS V14.01,2013-03-14 16:36:00,
2013-03-14 12:40:00,37.6,1.2,29.94,SSE,158,14.1,14.8,21,0.00,,---,0.00,VWS V14.01,2013-03-14 16:40:00,
2013-03-14 12:41:00,37.4,1.0,29.94,North,0,12.3,14.1,21,0.00,,---,0.00,VWS V14.01,2013-03-14 16:41:00,
2013-03-14 12:46:00,37.2,1.9,29.94,WNW,292,13.4,21.0,22,0.00,,---,0.00,VWS V14.01,2013-03-14 16:46:00,
2013-03-14 12:50:00,36.9,1.6,29.94,West,270,10.5,22.2,22,0.00,,---,0.00,VWS V14.01,2013-03-14 16:50:00,
2013-03-14 12:52:00,36.9,1.6,29.94,West,270,17.5,23.3,22,0.00,,---,0.00,VWS V14.01,2013-03-14 16:52:00,
2013-03-14 12:57:00,37.2,1.9,29.94,West,270,6.0,23.3,22,0.00,,---,0.00,VWS V14.01,2013-03-14 16:57:00,
2013-03-14 13:00:00,36.9,1.6,29.94,NNW,338,7.4,27.5,22,0.00,,---,0.00,VWS V14.01,2013-03-14 17:00:00,
2013-03-14 13:02:00,36.9,1.6,29.94,NNW,338,9.8,15.2,22,0.00,,---,0.00,VWS V14.01,2013-03-14 17:02:00,
2013-03-14 13:07:00,37.8,1.4,29.91,West,270,7.8,21.9,21,0.00,,---,0.00,VWS V14.01,2013-03-14 17:07:00,
2013-03-14 13:10:00,37.6,1.2,29.91,West,270,7.8,21.9,21,0.00,,---,0.00,VWS V14.01,2013-03-14 17:10:00,
2013-03-14 13:12:00,37.2,1.9,29.91,West,270,12.5,16.1,22,0.00,,---,0.00,VWS V14.01,2013-03-14 17:12:00,
2013-03-14 13:18:00,37.6,1.2,29.91,NW,315,15.2,21.5,21,0.00,,---,0.00,VWS V14.01,2013-03-14 17:18:00,
2013-03-14 13:20:00,37.4,1.0,29.91,NNW,338,10.3,21.5,21,0.00,,---,0.00,VWS V14.01,2013-03-14 17:20:00,
2013-03-14 13:22:00,37.9,1.5,29.91,NW,315,10.5,15.7,21,0.00,,---,0.00,VWS V14.01,2013-03-14 17:22:00,
2013-03-14 13:28:00,38.5,2.0,29.91,North,0,16.1,17.5,21,0.00,,---,0.00,VWS V14.01,2013-03-14 17:28:00,
2013-03-14 13:30:00,37.6,1.2,29.91,WNW,292,10.3,17.5,21,0.00,,---,0.00,VWS V14.01,2013-03-14 17:30:00,
2013-03-14 13:33:00,37.8,1.4,29.91,NW,315,5.8,20.6,21,0.00,,---,0.00,VWS V14.01,2013-03-14 17:33:00,
2013-03-14 13:38:00,38.8,2.3,29.91,NNW,338,9.6,20.6,21,0.00,,---,0.00,VWS V14.01,2013-03-14 17:38:00,
2013-03-14 13:40:00,38.3,1.8,29.91,NW,315,8.7,20.6,21,0.00,,---,0.00,VWS V14.01,2013-03-14 17:40:00,
2013-03-14 13:43:00,39.2,2.6,29.91,North,0,8.7,11.0,21,0.00,,---,0.00,VWS V14.01,2013-03-14 17:43:00,
2013-03-14 13:48:00,39.6,2.9,29.91,WSW,248,8.1,16.6,21,0.00,,---,0.00,VWS V14.01,2013-03-14 17:48:00,
2013-03-14 13:50:00,39.2,2.6,29.91,NNW,338,13.6,16.6,21,0.00,,---,0.00,VWS V14.01,2013-03-14 17:50:00,
2013-03-14 13:53:00,38.7,2.1,29.91,WNW,292,11.9,17.7,21,0.00,,---,0.00,VWS V14.01,2013-03-14 17:53:00,
2013-03-14 13:58:00,39.7,3.0,29.91,West,270,12.1,23.9,21,0.00,,---,0.00,VWS V14.01,2013-03-14 17:58:00,
2013-03-14 14:00:00,39.7,3.0,29.91,North,0,3.1,23.9,21,0.00,,---,0.00,VWS V14.01,2013-03-14 18:00:00,
2013-03-14 14:03:00,40.5,3.6,29.91,West,270,4.9,8.5,21,0.00,,---,0.00,VWS V14.01,2013-03-14 18:03:00,
2013-03-14 14:08:00,39.4,2.7,29.91,NNW,338,6.0,14.8,21,0.00,,---,0.00,VWS V14.01,2013-03-14 18:08:00,
2013-03-14 14:10:00,39.0,2.4,29.91,NNW,338,10.1,22.8,21,0.00,,---,0.00,VWS V14.01,2013-03-14 18:10:00,
2013-03-14 14:13:00,38.8,2.3,29.91,NNW,338,11.0,18.6,21,0.00,,---,0.00,VWS V14.01,2013-03-14 18:13:00,
2013-03-14 14:18:00,38.8,2.3,29.91,NW,315,13.0,18.8,21,0.00,,---,0.00,VWS V14.01,2013-03-14 18:18:00,
2013-03-14 14:20:00,38.7,2.1,29.91,WNW,292,12.1,18.8,21,0.00,,---,0.00,VWS V14.01,2013-03-14 18:20:00,
2013-03-14 14:24:00,38.7,2.1,29.91,WNW,292,10.3,16.3,21,0.00,,---,0.00,VWS V14.01,2013-03-14 18:24:00,
2013-03-14 14:29:00,39.4,2.7,29.91,West,270,6.9,22.2,21,0.00,,---,0.00,VWS V14.01,2013-03-14 18:29:00,
2013-03-14 14:30:00,39.7,3.0,29.91,NW,315,12.5,22.2,21,0.00,,---,0.00,VWS V14.01,2013-03-14 18:30:00,
2013-03-14 14:34:00,40.1,3.3,29.91,NW,315,14.8,17.7,21,0.00,,---,0.00,VWS V14.01,2013-03-14 18:34:00,
2013-03-14 14:39:00,39.7,3.0,29.91,NW,315,12.8,19.5,21,0.00,,---,0.00,VWS V14.01,2013-03-14 18:39:00,
2013-03-14 14:40:00,39.6,2.9,29.91,SW,225,17.2,19.9,21,0.00,,---,0.00,VWS V14.01,2013-03-14 18:40:00,
2013-03-14 14:44:00,39.2,2.6,29.91,WNW,292,10.1,26.0,21,0.00,,---,0.00,VWS V14.01,2013-03-14 18:44:00,
2013-03-14 14:49:00,38.7,2.1,29.91,WNW,292,13.2,27.7,21,0.00,,---,0.00,VWS V14.01,2013-03-14 18:49:00,
2013-03-14 14:50:00,38.7,2.1,29.91,NNW,338,13.0,27.7,21,0.00,,---,0.00,VWS V14.01,2013-03-14 18:50:00,
2013-03-14 14:54:00,39.2,2.6,29.91,WNW,292,7.2,16.6,21,0.00,,---,0.00,VWS V14.01,2013-03-14 18:54:00,
2013-03-14 14:59:00,38.7,2.1,29.91,NW,315,13.0,19.9,21,0.00,,---,0.00,VWS V14.01,2013-03-14 18:59:00,
2013-03-14 15:00:00,38.7,2.1,29.91,ENE,68,7.8,19.9,21,0.00,,---,0.00,VWS V14.01,2013-03-14 19:00:00,
2013-03-14 15:04:00,39.0,2.4,29.91,WNW,292,13.2,14.3,21,0.00,,---,0.00,VWS V14.01,2013-03-14 19:04:00,
2013-03-14 15:09:00,40.6,3.8,29.91,WNW,292,19.2,19.2,21,0.00,,---,0.00,VWS V14.01,2013-03-14 19:09:00,
2013-03-14 15:10:00,40.5,3.6,29.91,WNW,292,12.5,19.2,21,0.00,,---,0.00,VWS V14.01,2013-03-14 19:10:00,
2013-03-14 15:14:00,39.9,3.2,29.91,NW,315,10.5,14.5,21,0.00,,---,0.00,VWS V14.01,2013-03-14 19:14:00,
2013-03-14 15:20:00,40.5,3.6,29.91,NW,315,5.8,14.5,21,0.00,,---,0.00,VWS V14.01,2013-03-14 19:20:00,
2013-03-14 15:25:00,40.1,3.3,29.91,West,270,13.0,22.8,21,0.00,,---,0.00,VWS V14.01,2013-03-14 19:25:00,
2013-03-14 15:30:00,40.5,3.6,29.91,East,90,8.5,22.8,21,0.00,,---,0.00,VWS V14.01,2013-03-14 19:30:00,
2013-03-14 15:35:00,39.7,3.0,29.91,WNW,292,10.1,27.3,21,0.00,,---,0.00,VWS V14.01,2013-03-14 19:35:00,
2013-03-14 15:40:00,39.7,3.0,29.91,NNW,338,7.4,7.4,21,0.00,,---,0.00,VWS V14.01,2013-03-14 19:40:00,
2013-03-14 15:45:00,40.3,3.5,29.91,West,270,7.6,18.6,21,0.00,,---,0.00,VWS V14.01,2013-03-14 19:45:00,
2013-03-14 15:50:00,40.5,3.6,29.88,West,270,7.8,10.5,21,0.00,,---,0.00,VWS V14.01,2013-03-14 19:50:00,
2013-03-14 15:55:00,40.5,3.6,29.88,WNW,292,19.9,19.9,21,0.00,,---,0.00,VWS V14.01,2013-03-14 19:55:00,
2013-03-14 16:00:00,39.9,3.2,29.88,West,270,4.0,10.1,21,0.00,,---,0.00,VWS V14.01,2013-03-14 20:00:00,
2013-03-14 16:05:00,39.4,2.7,29.91,NW,315,7.8,22.8,21,0.00,,---,0.00,VWS V14.01,2013-03-14 20:05:00,
2013-03-14 16:10:00,39.9,3.2,29.91,West,270,13.6,13.6,21,0.00,,---,0.00,VWS V14.01,2013-03-14 20:10:00,
2013-03-14 16:15:00,39.4,2.7,29.91,NW,315,15.9,17.5,21,0.00,,---,0.00,VWS V14.01,2013-03-14 20:15:00,
2013-03-14 16:20:00,38.8,2.3,29.91,WNW,292,10.5,13.0,21,0.00,,---,0.00,VWS V14.01,2013-03-14 20:20:00,
2013-03-14 16:25:00,39.2,2.6,29.91,WNW,292,8.7,23.3,21,0.00,,---,0.00,VWS V14.01,2013-03-14 20:25:00,
2013-03-14 16:30:00,39.2,2.6,29.91,West,270,6.9,12.8,21,0.00,,---,0.00,VWS V14.01,2013-03-14 20:30:00,
2013-03-14 16:35:00,39.7,3.0,29.91,NW,315,6.5,19.0,21,0.00,,---,0.00,VWS V14.01,2013-03-14 20:35:00,
2013-03-14 16:40:00,39.9,3.2,29.91,West,270,15.4,19.7,21,0.00,,---,0.00,VWS V14.01,2013-03-14 20:40:00,
2013-03-14 16:42:00,39.9,3.2,29.91,West,270,14.8,15.4,21,0.00,,---,0.00,VWS V14.01,2013-03-14 20:42:00,
2013-03-14 16:47:00,40.5,3.6,29.91,NW,315,13.0,23.5,21,0.00,,---,0.00,VWS V14.01,2013-03-14 20:47:00,
2013-03-14 16:50:00,39.9,3.2,29.91,SW,225,13.0,23.5,21,0.00,,---,0.00,VWS V14.01,2013-03-14 20:50:00,
2013-03-14 16:52:00,39.6,2.9,29.91,WNW,292,9.0,17.7,21,0.00,,---,0.00,VWS V14.01,2013-03-14 20:52:00,
2013-03-14 16:57:00,39.7,3.0,29.91,NW,315,7.8,23.9,21,0.00,,---,0.00,VWS V14.01,2013-03-14 20:57:00,
2013-03-14 17:00:00,39.9,3.2,29.91,WNW,292,9.2,23.9,21,0.00,,---,0.00,VWS V14.01,2013-03-14 21:00:00,
2013-03-14 17:02:00,40.3,3.5,29.91,NW,315,10.1,15.2,21,0.00,,---,0.00,VWS V14.01,2013-03-14 21:02:00,
2013-03-14 17:07:00,40.3,3.5,29.91,West,270,15.7,15.7,21,0.00,,---,0.00,VWS V14.01,2013-03-14 21:07:00,
2013-03-14 17:10:00,40.3,3.5,29.91,NE,45,15.4,15.7,21,0.00,,---,0.00,VWS V14.01,2013-03-14 21:10:00,
2013-03-14 17:12:00,40.3,3.5,29.91,WNW,292,16.3,16.8,21,0.00,,---,0.00,VWS V14.01,2013-03-14 21:12:00,
2013-03-14 17:17:00,39.7,3.0,29.91,NW,315,22.4,22.4,21,0.00,,---,0.00,VWS V14.01,2013-03-14 21:17:00,
2013-03-14 17:20:00,40.1,3.3,29.91,NNW,338,15.7,22.4,21,0.00,,---,0.00,VWS V14.01,2013-03-14 21:20:00,
2013-03-14 17:22:00,40.3,3.5,29.91,West,270,10.3,17.7,21,0.00,,---,0.00,VWS V14.01,2013-03-14 21:22:00,
2013-03-14 17:27:00,40.3,3.5,29.91,WNW,292,17.7,17.7,21,0.00,,---,0.00,VWS V14.01,2013-03-14 21:27:00,
2013-03-14 17:30:00,39.9,3.2,29.91,West,270,13.0,17.7,21,0.00,,---,0.00,VWS V14.01,2013-03-14 21:30:00,
2013-03-14 17:32:00,39.7,3.0,29.91,WNW,292,15.2,17.7,21,0.00,,---,0.00,VWS V14.01,2013-03-14 21:32:00,
2013-03-14 17:38:00,39.9,3.2,29.91,North,0,3.4,22.4,21,0.00,,---,0.00,VWS V14.01,2013-03-14 21:38:00,
2013-03-14 17:40:00,39.9,3.2,29.91,NW,315,7.6,22.4,21,0.00,,---,0.00,VWS V14.01,2013-03-14 21:40:00,
2013-03-14 17:43:00,39.9,3.2,29.91,NW,315,17.9,17.9,21,0.00,,---,0.00,VWS V14.01,2013-03-14 21:43:00,
2013-03-14 17:48:00,39.9,3.2,29.91,NW,315,23.5,23.5,21,0.00,,---,0.00,VWS V14.01,2013-03-14 21:48:00,
2013-03-14 17:50:00,39.9,3.2,29.91,NW,315,10.3,23.5,21,0.00,,---,0.00,VWS V14.01,2013-03-14 21:50:00,
2013-03-14 17:53:00,40.3,3.5,29.91,West,270,7.8,10.3,21,0.00,,---,0.00,VWS V14.01,2013-03-14 21:53:00,
2013-03-14 17:58:00,40.1,3.3,29.91,West,270,10.1,17.2,21,0.00,,---,0.00,VWS V14.01,2013-03-14 21:58:00,
2013-03-14 18:00:00,39.9,3.2,29.91,NW,315,10.7,17.2,21,0.00,,---,0.00,VWS V14.01,2013-03-14 22:00:00,
2013-03-14 18:03:00,39.9,3.2,29.91,WNW,292,6.3,22.6,21,0.00,,---,0.00,VWS V14.01,2013-03-14 22:03:00,
2013-03-14 18:08:00,39.9,3.2,29.91,West,270,10.7,22.6,21,0.00,,---,0.00,VWS V14.01,2013-03-14 22:08:00,
2013-03-14 18:10:00,39.9,3.2,29.91,WNW,292,6.5,22.6,21,0.00,,---,0.00,VWS V14.01,2013-03-14 22:10:00,
2013-03-14 18:13:00,39.7,3.0,29.91,NNW,338,9.8,15.4,21,0.00,,---,0.00,VWS V14.01,2013-03-14 22:13:00,
2013-03-14 18:18:00,39.6,2.9,29.91,NW,315,7.6,20.4,21,0.00,,---,0.00,VWS V14.01,2013-03-14 22:18:00,
2013-03-14 18:20:00,39.4,2.7,29.91,NW,315,11.9,20.4,21,0.00,,---,0.00,VWS V14.01,2013-03-14 22:20:00,
2013-03-14 18:23:00,39.2,2.6,29.91,WSW,248,10.3,19.5,21,0.00,,---,0.00,VWS V14.01,2013-03-14 22:23:00,
2013-03-14 18:28:00,39.0,2.4,29.91,NW,315,7.6,19.5,21,0.00,,---,0.00,VWS V14.01,2013-03-14 22:28:00,
2013-03-14 18:30:00,39.0,2.4,29.91,NW,315,19.9,19.9,21,0.00,,---,0.00,VWS V14.01,2013-03-14 22:30:00,
2013-03-14 18:34:00,38.8,2.3,29.91,West,270,8.7,19.9,21,0.00,,---,0.00,VWS V14.01,2013-03-14 22:34:00,
2013-03-14 18:39:00,38.8,2.3,29.91,NW,315,5.6,22.2,21,0.00,,---,0.00,VWS V14.01,2013-03-14 22:39:00,
2013-03-14 18:40:00,38.8,2.3,29.91,NW,315,10.3,22.2,21,0.00,,---,0.00,VWS V14.01,2013-03-14 22:40:00,
2013-03-14 18:44:00,38.7,2.1,29.91,WNW,292,5.8,11.0,21,0.00,,---,0.00,VWS V14.01,2013-03-14 22:44:00,
2013-03-14 18:49:00,38.5,2.0,29.88,NW,315,7.8,15.2,21,0.00,,---,0.00,VWS V14.01,2013-03-14 22:49:00,
2013-03-14 18:50:00,38.5,2.0,29.88,NW,315,10.1,15.2,21,0.00,,---,0.00,VWS V14.01,2013-03-14 22:50:00,
2013-03-14 18:54:00,38.3,1.8,29.88,NW,315,11.0,11.0,21,0.00,,---,0.00,VWS V14.01,2013-03-14 22:54:00,
2013-03-14 18:59:00,38.1,1.6,29.88,West,270,12.5,15.4,21,0.00,,---,0.00,VWS V14.01,2013-03-14 22:59:00,
2013-03-14 19:00:00,38.1,1.6,29.88,NW,315,8.5,15.4,21,0.00,,---,0.00,VWS V14.01,2013-03-14 23:00:00,
2013-03-14 19:04:00,38.1,1.6,29.88,WNW,292,13.6,13.6,21,0.00,,---,0.00,VWS V14.01,2013-03-14 23:04:00,
2013-03-14 19:09:00,37.9,1.5,29.88,WNW,292,8.7,14.1,21,0.00,,---,0.00,VWS V14.01,2013-03-14 23:09:00,
2013-03-14 19:10:00,37.9,1.5,29.88,West,270,8.5,14.1,21,0.00,,---,0.00,VWS V14.01,2013-03-14 23:10:00,
2013-03-14 19:14:00,37.9,1.5,29.88,NW,315,11.0,13.2,21,0.00,,---,0.00,VWS V14.01,2013-03-14 23:14:00,
2013-03-14 19:19:00,37.8,1.4,29.91,WNW,292,6.3,13.2,21,0.00,,---,0.00,VWS V14.01,2013-03-14 23:19:00,
2013-03-14 19:20:00,37.8,1.4,29.91,WNW,292,4.0,13.2,21,0.00,,---,0.00,VWS V14.01,2013-03-14 23:20:00,
2013-03-14 19:24:00,37.8,1.4,29.91,West,270,6.5,17.5,21,0.00,,---,0.00,VWS V14.01,2013-03-14 23:24:00,
2013-03-14 19:30:00,37.8,1.4,29.91,NNW,338,7.6,17.5,21,0.00,,---,0.00,VWS V14.01,2013-03-14 23:30:00,
2013-03-14 19:35:00,37.6,1.2,29.91,NW,315,6.0,11.9,21,0.00,,---,0.00,VWS V14.01,2013-03-14 23:35:00,
2013-03-14 19:40:00,37.6,1.2,29.91,West,270,8.7,13.9,21,0.00,,---,0.00,VWS V14.01,2013-03-14 23:40:00,
2013-03-14 19:45:00,37.6,1.2,29.91,WNW,292,9.6,12.1,21,0.00,,---,0.00,VWS V14.01,2013-03-14 23:45:00,
2013-03-14 19:50:00,37.4,1.0,29.91,WNW,292,3.6,13.2,21,0.00,,---,0.00,VWS V14.01,2013-03-14 23:50:00,
2013-03-14 19:55:00,37.4,1.0,29.91,WNW,292,5.6,12.8,21,0.00,,---,0.00,VWS V14.01,2013-03-14 23:55:00,
2013-03-14 20:00:00,37.4,1.0,29.91,North,0,5.8,5.8,21,0.00,,---,0.00,VWS V14.01,2013-03-15 00:00:00,
2013-03-14 20:05:00,37.2,1.9,29.94,NNW,338,7.4,10.3,22,0.00,,---,0.00,VWS V14.01,2013-03-15 00:05:00,
2013-03-14 20:10:00,37.0,1.7,29.94,WNW,292,6.3,8.1,22,0.00,,---,0.00,VWS V14.01,2013-03-15 00:10:00,
2013-03-14 20:15:00,36.9,1.6,29.94,WNW,292,12.3,12.3,22,0.00,,---,0.00,VWS V14.01,2013-03-15 00:15:00,
2013-03-14 20:20:00,37.0,1.7,29.94,NNW,338,12.1,12.1,22,0.00,,---,0.00,VWS V14.01,2013-03-15 00:20:00,
2013-03-14 20:25:00,36.9,1.6,29.94,NW,315,6.5,13.0,22,0.00,,---,0.00,VWS V14.01,2013-03-15 00:25:00,
2013-03-14 20:30:00,36.9,1.6,29.94,NNW,338,6.0,7.8,22,0.00,,---,0.00,VWS V14.01,2013-03-15 00:30:00,
2013-03-14 20:35:00,36.7,1.4,29.94,West,270,6.5,10.1,22,0.00,,---,0.00,VWS V14.01,2013-03-15 00:35:00,
2013-03-14 20:40:00,36.7,1.4,29.94,West,270,3.6,13.6,22,0.00,,---,0.00,VWS V14.01,2013-03-15 00:40:00,
2013-03-14 20:41:00,36.7,1.4,29.94,NW,315,3.1,6.5,22,0.00,,---,0.00,VWS V14.01,2013-03-15 00:41:00,
2013-03-14 20:46:00,36.5,1.3,29.94,WNW,292,12.5,12.5,22,0.00,,---,0.00,VWS V14.01,2013-03-15 00:46:00,
2013-03-14 20:50:00,36.7,1.4,29.94,WNW,292,8.5,15.2,22,0.00,,---,0.00,VWS V14.01,2013-03-15 00:50:00,
2013-03-14 20:51:00,36.7,1.4,29.94,North,0,5.4,8.5,22,0.00,,---,0.00,VWS V14.01,2013-03-15 00:51:00,
2013-03-14 20:56:00,36.5,1.3,29.94,WSW,248,2.9,16.1,22,0.00,,---,0.00,VWS V14.01,2013-03-15 00:56:00,
2013-03-14 21:00:00,36.5,1.3,29.94,NW,315,8.1,16.1,22,0.00,,---,0.00,VWS V14.01,2013-03-15 01:00:00,
2013-03-14 21:01:00,36.5,1.3,29.94,WNW,292,5.4,8.1,22,0.00,,---,0.00,VWS V14.01,2013-03-15 01:01:00,
2013-03-14 21:06:00,36.3,1.1,29.94,WNW,292,4.9,9.8,22,0.00,,---,0.00,VWS V14.01,2013-03-15 01:06:00,
2013-03-14 21:10:00,36.3,1.1,29.94,NW,315,8.1,9.8,22,0.00,,---,0.00,VWS V14.01,2013-03-15 01:10:00,
2013-03-14 21:11:00,36.1,1.0,29.94,WNW,292,3.1,8.5,22,0.00,,---,0.00,VWS V14.01,2013-03-15 01:11:00,
2013-03-14 21:16:00,36.1,1.0,29.94,NW,315,3.8,10.1,22,0.00,,---,0.00,VWS V14.01,2013-03-15 01:16:00,
2013-03-14 21:20:00,36.0,0.8,29.94,NW,315,8.1,10.1,22,0.00,,---,0.00,VWS V14.01,2013-03-15 01:20:00,
2013-03-14 21:21:00,36.1,1.0,29.94,NW,315,3.8,8.1,22,0.00,,---,0.00,VWS V14.01,2013-03-15 01:21:00,
2013-03-14 21:26:00,36.0,0.8,29.94,NW,315,7.2,9.8,22,0.00,,---,0.00,VWS V14.01,2013-03-15 01:26:00,
2013-03-14 21:30:00,35.8,0.7,29.94,West,270,3.1,9.8,22,0.00,,---,0.00,VWS V14.01,2013-03-15 01:30:00,
2013-03-14 21:31:00,35.8,0.7,29.94,NW,315,6.3,6.3,22,0.00,,---,0.00,VWS V14.01,2013-03-15 01:31:00,
2013-03-14 21:37:00,35.6,0.5,29.94,West,270,8.5,8.5,22,0.00,,---,0.00,VWS V14.01,2013-03-15 01:37:00,
2013-03-14 21:40:00,35.6,0.5,29.94,West,270,4.7,9.8,22,0.00,,---,0.00,VWS V14.01,2013-03-15 01:40:00,
2013-03-14 21:42:00,35.6,0.5,29.94,North,0,3.6,7.2,22,0.00,,---,0.00,VWS V14.01,2013-03-15 01:42:00,
2013-03-14 21:47:00,35.4,0.4,29.94,WNW,292,3.6,7.2,22,0.00,,---,0.00,VWS V14.01,2013-03-15 01:47:00,
2013-03-14 21:50:00,35.4,0.4,29.97,NNW,338,5.8,7.4,22,0.00,,---,0.00,VWS V14.01,2013-03-15 01:50:00,
2013-03-14 21:52:00,35.4,0.4,29.97,WNW,292,6.0,7.8,22,0.00,,---,0.00,VWS V14.01,2013-03-15 01:52:00,
2013-03-14 21:57:00,35.2,0.2,29.97,WNW,292,3.8,7.8,22,0.00,,---,0.00,VWS V14.01,2013-03-15 01:57:00,
2013-03-14 22:00:00,35.4,0.4,29.97,NW,315,6.5,10.7,22,0.00,,---,0.00,VWS V14.01,2013-03-15 02:00:00,
2013-03-14 22:02:00,35.2,0.2,29.97,NNE,22,2.5,6.5,22,0.00,,---,0.00,VWS V14.01,2013-03-15 02:02:00,
2013-03-14 22:08:00,35.1,0.1,29.97,WNW,292,2.7,8.1,22,0.00,,---,0.00,VWS V14.01,2013-03-15 02:08:00,
2013-03-14 22:10:00,35.1,0.1,29.97,NW,315,2.9,8.1,22,0.00,,---,0.00,VWS V14.01,2013-03-15 02:10:00,
2013-03-14 22:13:00,34.9,-0.1,29.97,WNW,292,3.6,7.4,22,0.00,,---,0.00,VWS V14.01,2013-03-15 02:13:00,
2013-03-14 22:18:00,34.9,-0.1,29.97,NW,315,5.8,7.4,22,0.00,,---,0.00,VWS V14.01,2013-03-15 02:18:00,
2013-03-14 22:20:00,34.9,-0.1,29.97,West,270,5.4,8.7,22,0.00,,---,0.00,VWS V14.01,2013-03-15 02:20:00,
2013-03-14 22:23:00,34.9,-0.1,29.97,NW,315,5.6,7.2,22,0.00,,---,0.00,VWS V14.01,2013-03-15 02:23:00,
2013-03-14 22:28:00,34.7,-0.2,29.97,NW,315,6.9,8.7,22,0.00,,---,0.00,VWS V14.01,2013-03-15 02:28:00,
2013-03-14 22:30:00,34.9,-0.1,29.97,West,270,4.9,8.7,22,0.00,,---,0.00,VWS V14.01,2013-03-15 02:30:00,
2013-03-14 22:33:00,34.9,-0.1,29.97,NW,315,6.3,9.0,22,0.00,,---,0.00,VWS V14.01,2013-03-15 02:33:00,
2013-03-14 22:38:00,34.7,-0.2,29.97,NW,315,10.5,10.5,22,0.00,,---,0.00,VWS V14.01,2013-03-15 02:38:00,
2013-03-14 22:40:00,34.7,-0.2,29.97,NW,315,6.7,10.5,22,0.00,,---,0.00,VWS V14.01,2013-03-15 02:40:00,
2013-03-14 22:43:00,34.7,-0.2,29.97,NNW,338,4.3,7.6,22,0.00,,---,0.00,VWS V14.01,2013-03-15 02:43:00,
2013-03-14 22:48:00,34.5,-0.4,29.97,NW,315,6.3,8.1,22,0.00,,---,0.00,VWS V14.01,2013-03-15 02:48:00,
2013-03-14 22:50:00,34.5,-0.4,29.97,NW,315,8.1,8.1,22,0.00,,---,0.00,VWS V14.01,2013-03-15 02:50:00,
2013-03-14 22:53:00,34.5,-0.4,29.97,NW,315,8.1,8.7,22,0.00,,---,0.00,VWS V14.01,2013-03-15 02:53:00,
2013-03-14 22:58:00,34.5,-0.4,29.97,NW,315,3.8,12.3,22,0.00,,---,0.00,VWS V14.01,2013-03-15 02:58:00,
2013-03-14 23:00:00,34.3,-0.6,29.97,NW,315,6.0,12.3,22,0.00,,---,0.00,VWS V14.01,2013-03-15 03:00:00,
2013-03-14 23:03:00,34.3,-0.6,29.97,NW,315,9.8,9.8,22,0.00,,---,0.00,VWS V14.01,2013-03-15 03:03:00,
2013-03-14 23:08:00,34.3,-0.6,29.97,WSW,248,10.1,13.0,22,0.00,,---,0.00,VWS V14.01,2013-03-15 03:08:00,
2013-03-14 23:10:00,34.3,-0.6,29.97,NW,315,13.0,13.0,22,0.00,,---,0.00,VWS V14.01,2013-03-15 03:10:00,
2013-03-14 23:13:00,34.3,-0.6,29.97,NNW,338,11.0,13.0,22,0.00,,---,0.00,VWS V14.01,2013-03-15 03:13:00,
2013-03-14 23:19:00,34.3,-0.6,29.97,WNW,292,7.2,13.0,22,0.00,,---,0.00,VWS V14.01,2013-03-15 03:19:00,
2013-03-14 23:20:00,34.3,-0.6,29.97,NW,315,10.5,13.0,22,0.00,,---,0.00,VWS V14.01,2013-03-15 03:20:00,
2013-03-14 23:24:00,34.2,-0.7,29.97,NW,315,3.8,10.5,22,0.00,,---,0.00,VWS V14.01,2013-03-15 03:24:00,
2013-03-14 23:29:00,34.0,-0.9,29.97,NW,315,5.8,10.5,22,0.00,,---,0.00,VWS V14.01,2013-03-15 03:29:00,
2013-03-14 23:30:00,34.0,-0.9,29.97,West,270,7.2,10.5,22,0.00,,---,0.00,VWS V14.01,2013-03-15 03:30:00,
2013-03-14 23:34:00,34.0,-0.9,30.00,NW,315,5.4,9.8,22,0.00,,---,0.00,VWS V14.01,2013-03-15 03:34:00,
2013-03-14 23:39:00,33.8,-1.0,30.00,NNW,338,4.0,9.8,22,0.00,,---,0.00,VWS V14.01,2013-03-15 03:39:00,
2013-03-14 23:40:00,33.8,-1.0,30.00,WNW,292,8.5,11.4,22,0.00,,---,0.00,VWS V14.01,2013-03-15 03:40:00,
2013-03-14 23:44:00,33.8,-1.0,30.00,West,270,4.3,10.3,22,0.00,,---,0.00,VWS V14.01,2013-03-15 03:44:00,
2013-03-14 23:49:00,33.6,-0.2,29.94,North,0,2.7,10.3,23,0.00,,---,0.00,VWS V14.01,2013-03-15 03:49:00,
2013-03-14 23:50:00,33.6,-0.2,29.94,NW,315,6.3,10.3,23,0.00,,---,0.00,VWS V14.01,2013-03-15 03:50:00,
2013-03-14 23:54:00,33.4,-0.4,29.94,WNW,292,3.4,8.1,23,0.00,,---,0.00,VWS V14.01,2013-03-15 03:54:00,